Wind_Speed
122 123 123 124 125 125 126 126 127 128 128 129 130 130 131 132 132 133 134 135 135 136 137 138 138 139 140 141 142 143 144 145 146 147 148 150 151 152 153 154 155 156 156 157 158 159 160 161 162 162 163 163 163 163 163 163 163 163 163 163 163 163 164 163 163 162 162 161 161 160 160 160 159 158 158 157 157 156 155 155 154 154 153 153 152
113 114 115 115 116 117 117 118 118 119 120 121 122 123 123 124 125 126 127 128 129 130 131 132 133 134 134 135 137 138 138 139 140 141 143 144 146 147 148 150 151 152 152 153 154 155 157 158 159 160 161 161 162 162 163 163 163 164 164 164 164 165 165 165 165 164 164 163 163 162 162 162 161 161 160 159 159 158 158 157 156 155 155 155 154
104 105 106 107 108 109 110 111 112 113 114 115 116 117 118 119 120 121 122 124 124 126 126 127 129 130 131 132 133 134 135 136 136 137 138 139 141 142 143 145 146 147 148 149 150 151 152 153 155 156 156 157 158 158 159 159 160 160 161 161 161 162 162 163 164 163 162 162 161 161 161 161 160 160 159 158 158 158 157 156 155 155 154 154 153
100 101 102 104 105 106 107 108 109 111 112 113 114 115 116 117 119 120 121 122 123 124 125 126 127 128 129 130 131 132 133 134 135 135 136 137 138 139 140 142 143 144 144 145 146 147 148 149 151 152 153 153 154 155 156 156 157 157 157 158 158 158 159 159 160 160 160 159 158 158 157 157 157 157 156 156 156 155 155 154 153 152 151 151 150
98 99 101 102 103 104 106 107 108 110 111 112 113 114 116 117 118 120 121 122 123 124 125 126 127 128 129 130 131 132 133 134 135 135 136 137 137 138 140 141 142 143 143 143 144 145 146 147 148 149 150 150 151 151 152 153 154 154 155 155 156 156 156 157 158 158 158 157 156 156 155 154 154 154 154 154 154 153 152 152 151 150 149 149 148
96 97 98 99 101 102 103 105 106 107 108 110 111 112 113 115 116 118 119 120 122 123 124 125 126 128 129 130 131 132 133 134 135 135 136 137 138 139 140 141 142 143 143 143 144 145 146 146 147 148 149 149 149 149 150 151 151 151 152 152 153 153 153 154 155 156 156 155 155 154 154 153 152 152 152 152 153 153 152 151 150 150 149 148 147
90 92 93 94 96 97 99 100 102 103 104 106 107 108 110 111 112 114 115 117 118 119 120 122 123 124 126 127 128 129 131 132 133 134 135 135 136 137 139 140 141 142 143 143 144 145 146 147 148 149 149 149 149 149 150 150 150 151 151 151 151 151 151 151 152 153 154 154 153 152 152 152 151 151 151 150 151 152 152 151 150 149 148 148 147
83 85 86 88 89 91 93 94 96 97 99 100 102 103 104 106 107 108 110 112 113 115 116 117 119 120 121 123 124 126 127 128 129 130 131 132 133 134 135 137 138 139 140 140 141 143 144 146 147 149 149 149 150 150 150 151 151 151 151 151 151 151 151 151 151 152 152 153 152 152 150 150 150 149 149 149 148 148 149 150 150 149 148 147 147
77 79 80 82 83 85 87 88 90 91 93 94 96 98 99 100 102 103 105 107 108 110 111 112 114 115 117 118 120 121 123 124 125 126 128 129 130 131 132 133 134 135 136 136 137 138 139 141 143 145 146 147 148 149 150 150 151 152 152 152 152 152 152 152 152 152 152 153 153 153 151 150 150 149 149 148 148 146 146 148 149 148 147 146 146
73 75 77 78 79 80 82 84 85 86 88 89 91 93 94 96 97 99 101 102 104 105 106 108 109 111 112 114 115 117 118 120 121 122 124 125 126 127 128 129 131 132 132 133 133 134 135 136 138 139 140 141 142 144 145 146 147 149 150 151 152 153 153 153 153 153 153 153 154 154 153 152 151 150 150 149 149 147 146 146 148 149 148 147 146
72 74 75 76 77 78 79 81 83 84 85 87 88 90 91 93 95 96 98 100 101 102 104 105 107 108 109 110 111 113 114 116 117 119 120 121 122 123 124 126 127 129 129 130 130 131 132 133 134 135 135 136 137 138 139 140 142 143 144 146 147 148 150 151 152 153 153 154 154 154 155 154 153 152 151 150 150 149 148 147 148 149 149 149 148
69 72 74 75 76 76 78 79 81 83 84 86 87 89 90 92 94 95 97 99 100 101 103 104 106 107 108 109 110 111 112 113 114 116 117 118 118 119 120 122 123 125 126 126 127 127 129 130 131 132 132 133 134 135 135 136 137 138 139 140 142 143 144 145 146 148 149 151 152 153 154 155 155 154 154 153 152 151 150 149 149 149 150 150 150
65 67 70 72 72 73 73 75 77 79 81 82 84 86 88 89 91 92 95 98 99 100 102 104 106 107 109 109 110 111 111 113 114 115 115 116 116 116 117 118 120 121 121 122 122 123 124 126 127 128 129 130 131 132 133 134 134 135 135 136 137 138 139 140 141 142 143 145 146 148 149 151 152 153 154 154 153 153 151 150 150 150 150 151 151
63 65 68 70 70 70 70 72 73 75 77 78 80 82 83 85 87 88 91 94 96 98 100 102 104 107 109 110 111 112 112 113 115 116 116 116 116 116 117 117 118 118 118 119 119 119 120 121 122 123 125 126 127 128 129 130 131 132 133 134 134 135 135 136 137 138 139 140 142 143 144 145 147 148 150 151 151 152 152 151 151 151 151 151 152
65 66 68 70 70 70 70 71 73 74 75 77 79 80 82 83 85 86 88 90 93 95 97 99 102 104 107 109 110 111 112 113 114 115 116 117 117 117 118 118 118 118 118 118 117 117 117 118 118 119 120 121 123 124 125 126 126 127 129 130 131 132 132 133 134 134 136 137 138 139 140 142 143 144 145 146 147 148 148 149 149 149 150 151 152
67 69 69 70 71 71 71 72 73 74 75 77 79 80 81 82 84 86 88 90 92 94 96 98 100 103 105 107 109 110 111 112 113 113 114 115 116 117 117 118 118 119 119 118 117 116 116 115 115 115 116 117 118 119 121 121 122 123 124 125 126 127 128 129 131 131 132 133 134 135 136 138 139 141 142 143 143 144 145 145 145 145 146 147 149
71 72 72 72 72 72 73 73 74 75 76 77 79 80 82 83 84 86 87 89 91 93 95 97 99 101 104 106 108 109 110 110 110 110 111 112 113 115 116 116 117 118 118 118 117 117 116 115 114 113 113 114 114 115 116 117 118 119 120 121 122 122 123 124 125 127 128 130 131 132 132 134 135 136 138 139 141 142 142 143 143 143 142 143 144
73 75 75 75 74 74 74 75 75 76 77 78 80 81 82 84 85 86 87 89 90 92 94 96 97 99 101 103 105 107 109 109 108 107 107 108 110 112 113 113 114 114 115 115 116 116 115 114 113 113 113 113 113 113 113 114 115 116 117 117 118 119 119 120 121 122 123 124 126 127 129 130 131 132 134 135 136 138 139 140 141 141 141 141 141
75 76 77 77 77 76 76 76 76 77 78 79 81 82 84 85 87 88 88 89 91 92 94 95 96 97 99 101 103 105 107 108 108 107 105 105 107 109 110 111 110 110 111 111 112 113 113 112 112 112 112 111 111 111 111 112 112 113 114 114 115 116 116 117 118 119 120 120 121 122 123 125 126 128 130 131 132 133 135 136 138 139 139 139 139
76 78 78 78 79 79 79 78 78 79 80 82 83 84 86 87 88 89 90 90 91 93 94 95 96 97 98 99 101 103 105 106 107 107 105 104 106 108 110 110 109 108 108 109 110 111 111 111 111 110 110 110 109 109 109 109 109 110 111 112 112 113 114 115 116 117 117 118 118 119 120 120 121 123 124 126 128 130 131 132 133 134 136 137 137
78 79 79 79 80 80 80 80 80 81 82 84 85 87 88 89 90 90 90 90 91 92 93 94 95 95 96 97 99 100 102 104 105 106 105 104 104 108 110 109 108 107 107 108 108 109 110 110 110 110 109 108 107 107 107 107 107 107 108 108 109 110 111 112 114 115 115 116 116 117 118 119 119 119 120 122 123 125 127 129 130 130 131 132 133
79 80 81 82 82 82 82 82 83 83 84 86 87 89 90 90 91 91 90 90 91 91 91 92 93 93 94 95 96 97 99 101 103 103 103 102 103 106 108 107 106 106 106 106 107 108 109 109 109 109 108 107 106 106 105 105 104 104 104 105 106 107 108 109 111 112 113 113 114 115 116 117 118 119 119 120 120 121 123 124 126 127 128 129 129
82 82 83 84 84 84 84 84 84 85 86 87 89 90 90 91 91 91 90 89 90 89 89 89 89 90 91 92 93 94 96 97 99 99 99 99 101 104 104 104 103 104 104 104 104 105 106 106 107 107 106 106 105 105 104 103 103 102 102 102 103 104 104 106 107 108 109 110 111 112 113 115 116 117 118 119 119 119 120 120 121 123 125 126 127
83 84 85 85 85 85 85 86 86 87 88 89 90 91 91 91 91 90 90 89 89 89 89 88 89 90 91 91 92 93 93 94 94 95 95 96 98 99 100 99 99 100 101 101 101 102 102 103 103 104 104 104 103 103 103 102 101 100 100 100 100 101 101 102 102 103 104 105 107 108 110 112 113 114 115 116 117 117 118 118 118 119 120 121 123
83 84 85 85 86 86 87 88 88 89 90 91 92 92 93 93 93 93 92 91 91 91 90 90 90 91 92 93 92 92 92 92 92 93 93 95 96 96 95 95 96 97 97 98 98 98 99 99 100 100 101 101 101 101 101 100 99 99 98 98 98 98 98 98 98 99 100 101 102 104 106 108 109 111 113 114 114 115 115 116 116 117 117 117 118
83 83 84 85 86 87 88 89 90 91 92 93 94 95 95 95 95 94 93 91 90 89 89 89 89 90 90 90 89 89 88 89 89 90 92 94 94 93 92 93 94 94 94 95 95 95 95 95 96 97 97 98 98 98 98 98 97 96 96 96 96 95 95 95 95 96 97 98 99 101 102 104 106 107 109 110 111 112 112 113 114 115 115 114 114
83 84 85 86 87 88 89 90 90 92 94 95 96 96 96 95 93 91 90 89 88 88 87 88 88 88 88 87 86 85 85 85 86 86 88 91 92 91 90 91 92 92 92 93 93 93 93 93 94 94 94 95 95 95 95 95 94 94 94 93 93 93 93 93 93 94 95 95 96 98 99 100 102 103 105 106 107 108 109 110 111 112 112 112 111
83 84 85 86 87 88 89 90 91 93 95 96 96 96 95 94 92 90 89 88 88 87 86 86 85 84 84 83 83 82 82 82 83 83 84 86 87 88 88 88 89 90 90 91 91 91 91 91 92 92 92 92 92 93 92 92 92 92 91 91 91 91 91 91 91 92 93 94 94 95 96 97 98 99 100 101 103 104 105 106 107 108 108 108 108
84 85 85 86 87 88 89 90 92 94 95 96 95 95 93 92 89 88 87 87 87 86 84 83 82 81 80 80 80 79 79 79 79 79 80 81 83 84 85 86 87 88 88 88 88 88 88 89 89 89 89 89 90 90 90 90 90 90 89 89 89 88 88 88 89 90 91 92 93 93 93 93 94 95 96 97 98 99 100 102 103 104 104 104 105
84 85 85 86 87 89 90 92 93 94 95 94 93 92 90 88 87 86 86 87 86 85 83 81 80 80 79 78 78 77 77 77 77 77 77 78 79 81 82 83 84 85 85 85 85 85 85 85 85 85 86 86 87 87 87 87 87 87 87 86 86 85 85 85 86 88 89 90 90 90 90 90 91 92 93 93 94 95 96 97 99 100 100 100 100
83 84 85 86 88 89 90 91 93 93 93 92 91 89 88 87 86 86 86 86 86 84 83 81 79 78 78 77 76 75 75 75 75 76 76 77 77 78 79 79 80 81 82 82 82 82 82 81 81 82 83 83 84 84 84 83 84 84 84 83 82 82 82 83 84 86 87 88 88 88 88 88 89 89 90 91 91 92 93 94 95 96 96 96 96
82 83 85 86 88 89 89 90 91 91 91 91 90 88 87 86 85 85 85 84 83 82 81 80 79 77 76 75 74 74 73 74 74 74 74 75 75 76 76 76 76 77 78 78 79 79 78 78 78 79 80 80 81 81 80 80 81 81 80 80 79 79 79 81 83 84 85 85 86 86 87 87 87 88 88 88 89 89 90 91 91 92 92 93 93
82 84 85 87 88 89 89 90 91 91 91 90 89 87 85 84 84 84 83 82 81 80 79 79 78 77 75 74 73 73 72 72 72 72 72 72 72 73 73 73 73 73 74 74 75 75 75 75 76 76 77 78 78 78 78 77 78 78 78 76 75 75 77 79 81 82 83 83 84 84 85 85 86 86 86 86 87 87 88 88 88 88 88 89 90
82 84 86 87 88 88 89 91 92 92 90 89 88 87 86 86 85 84 83 81 80 79 79 78 77 76 76 74 73 72 71 71 70 70 70 70 70 70 70 70 70 70 71 71 71 72 72 72 73 74 74 75 76 75 75 75 76 76 75 73 71 72 74 76 78 80 81 81 82 82 83 83 84 84 84 85 85 85 85 84 84 84 85 86 87
82 84 85 87 88 88 90 91 92 91 90 89 88 88 88 88 87 85 83 81 80 79 78 77 76 75 74 74 73 72 71 70 69 68 68 68 67 67 67 67 67 68 68 69 69 69 70 70 70 71 72 73 73 73 72 73 73 73 72 70 68 69 71 73 75 77 78 79 80 80 80 81 82 83 84 84 84 82 81 81 81 82 82 83 84
83 85 86 87 88 90 91 92 92 92 92 90 89 88 88 88 88 86 84 82 80 79 77 76 75 74 73 72 71 70 69 68 67 67 66 66 65 65 65 65 65 65 66 66 66 67 67 67 68 68 69 70 70 70 69 70 71 71 69 67 66 67 68 70 72 74 75 76 77 78 79 80 81 82 83 82 80 78 77 77 79 79 79 80 80
85 87 89 90 92 93 95 95 95 94 93 91 89 88 88 88 87 85 83 81 80 78 77 75 74 73 72 71 70 69 67 66 65 65 64 63 63 63 62 62 63 63 63 63 64 64 64 65 65 65 66 67 68 67 66 67 68 68 67 64 64 64 66 68 70 71 73 74 75 76 77 79 80 81 80 79 76 75 74 75 76 76 76 77 78
88 89 91 93 94 96 97 97 96 95 93 91 89 89 89 88 86 84 81 80 78 77 75 74 73 72 71 70 69 68 67 65 64 63 62 61 61 60 60 60 60 60 61 61 61 61 62 62 62 63 63 64 65 64 64 64 66 66 64 62 61 62 64 66 67 69 70 71 73 74 75 76 77 77 77 76 75 74 73 73 73 73 73 74 76
90 91 93 94 95 96 97 97 96 94 92 90 88 88 88 87 85 82 80 78 76 75 74 73 72 71 71 70 69 67 66 64 63 62 61 60 60 59 59 59 58 58 59 59 59 59 60 60 60 60 60 61 62 62 61 62 63 63 61 58 58 60 62 64 65 67 69 70 71 73 73 73 73 73 74 75 75 74 72 71 71 70 72 74 76
90 92 93 95 96 96 96 95 94 93 91 88 88 88 87 85 83 81 79 77 76 74 73 72 71 70 69 69 68 66 65 63 62 61 60 59 59 58 58 57 57 57 57 57 57 57 58 58 57 57 58 58 59 59 59 59 60 59 57 55 55 58 60 62 64 65 67 69 70 70 70 69 69 71 72 73 73 73 71 68 68 69 72 73 72
91 92 94 95 96 96 96 95 94 92 90 88 87 87 87 85 82 80 78 77 75 73 72 71 70 69 69 68 67 65 64 63 62 61 60 59 58 58 57 56 56 56 56 56 55 55 56 56 55 55 55 55 56 57 57 56 56 56 54 52 53 56 58 60 61 63 65 67 68 67 67 66 67 68 70 70 71 70 68 66 67 70 71 69 68
93 94 95 96 97 97 96 95 94 92 90 88 87 87 86 84 82 79 78 76 74 73 72 70 69 68 67 66 65 64 63 62 61 61 60 59 58 58 57 56 56 55 55 54 54 54 54 55 54 53 53 53 53 54 54 53 52 53 52 51 51 53 56 57 59 61 63 64 65 65 65 65 65 66 68 68 68 67 65 65 66 67 67 66 67
93 95 96 96 97 97 96 96 94 92 90 88 87 87 86 83 81 79 77 75 74 72 71 70 69 67 66 65 63 62 62 61 61 60 59 58 57 57 56 55 55 54 54 53 52 52 53 53 53 52 51 51 51 51 51 50 50 50 50 49 49 51 53 54 57 59 61 62 63 63 63 63 64 65 66 66 65 64 64 63 63 63 63 64 65
94 95 96 97 97 98 97 95 93 91 89 88 87 87 85 83 81 78 77 75 73 72 70 69 68 67 65 63 62 61 61 61 60 60 59 58 57 56 55 54 54 53 52 51 51 51 52 52 52 51 49 49 49 48 48 47 48 48 48 47 47 49 50 52 54 56 58 59 60 61 61 62 63 63 63 63 63 62 61 60 59 59 60 62 63
95 96 97 98 98 98 97 95 93 91 89 88 87 87 85 83 81 78 77 75 73 71 70 68 67 66 65 63 61 60 60 60 60 59 58 57 57 56 54 53 53 52 51 50 50 49 50 50 50 49 48 47 46 46 45 44 45 45 46 45 46 47 48 49 51 53 54 56 58 59 60 60 60 60 61 61 61 60 58 57 56 57 58 59 61
95 97 98 98 98 98 97 95 93 91 90 88 87 87 85 83 80 78 77 75 73 71 70 68 67 66 64 62 60 59 59 59 59 58 57 56 56 55 54 53 52 52 51 50 49 48 48 49 48 47 46 45 44 43 42 42 42 42 43 44 45 46 46 47 48 49 50 52 55 57 57 57 57 58 59 59 58 57 55 54 54 54 55 57 59
96 97 98 98 98 98 97 95 93 92 90 89 88 87 85 82 80 78 76 75 74 72 70 69 67 65 64 62 60 60 59 58 58 57 56 54 54 53 53 52 52 51 50 49 48 48 48 48 47 46 45 45 43 40 39 39 39 40 41 42 43 44 44 44 44 45 47 50 53 54 54 54 55 56 56 56 55 54 52 51 50 51 53 55 57
96 97 98 98 98 97 96 95 93 91 90 89 88 87 85 83 80 78 77 75 74 72 71 69 68 66 64 62 60 60 59 59 58 57 55 54 53 53 52 50 50 50 50 49 48 47 47 47 46 45 44 44 41 38 37 38 38 39 40 41 41 41 41 41 41 43 45 47 49 49 50 51 53 54 54 54 53 51 50 48 47 48 50 52 55
96 97 98 98 98 97 95 94 93 91 89 88 88 87 85 83 80 78 77 75 74 72 71 70 68 66 64 62 60 59 59 59 58 56 54 52 51 52 52 51 49 49 50 50 49 47 46 46 46 44 44 43 41 38 36 36 37 38 40 40 39 38 37 38 40 42 44 44 45 46 47 48 50 51 51 51 50 49 47 46 45 46 47 50 53
97 98 98 98 98 96 95 93 92 90 89 88 88 87 85 83 80 78 77 76 74 73 71 70 68 67 64 62 61 60 59 59 58 57 54 51 48 48 50 51 50 49 49 49 49 48 47 46 46 44 43 42 41 39 36 35 36 38 39 39 37 35 34 36 39 41 40 41 42 43 44 45 47 48 49 49 48 46 45 44 43 44 46 48 52
97 98 98 98 97 96 94 93 92 91 89 88 87 86 85 82 80 78 77 76 75 73 72 70 69 67 64 62 61 60 60 59 59 58 56 53 49 45 44 46 48 49 49 49 48 48 47 47 46 45 44 42 40 39 36 35 34 35 36 37 35 33 34 36 39 39 38 38 40 41 41 42 44 45 46 46 45 44 43 42 41 42 44 47 51
Wind_Direction
276 275 275 275 275 275 275 274 274 274 274 274 273 273 273 272 272 272 272 271 271 270 270 270 269 269 268 268 267 267 266 266 266 265 265 265 265 265 264 264 264 263 263 263 263 263 263 262 262 262 262 262 262 262 262 262 262 262 262 262 262 262 262 262 262 262 262 262 262 262 262 262 262 262 263 263 263 263 263 263 263 263 263 263 263
276 276 276 275 275 275 275 275 275 274 274 274 274 273 273 273 273 272 272 272 271 271 271 270 270 270 269 269 268 268 267 267 266 266 265 265 265 265 264 264 264 263 263 263 263 262 262 262 262 262 262 262 262 262 262 262 262 262 262 262 262 262 262 262 262 262 261 261 262 262 262 262 262 262 262 262 262 262 262 262 262 262 262 262 263
276 276 276 276 276 276 276 275 275 275 275 274 274 274 274 273 273 273 272 272 272 271 271 271 270 270 270 269 269 269 268 268 267 267 266 266 265 265 265 264 264 264 263 263 262 262 262 262 262 262 261 261 261 261 261 261 261 261 261 261 261 261 261 261 261 261 261 261 261 261 261 261 261 261 261 261 261 261 261 261 261 261 261 261 261
277 277 276 276 276 276 276 276 275 275 275 275 274 274 274 274 274 273 273 273 272 272 272 271 271 271 270 270 269 269 269 268 268 267 267 267 266 266 266 265 265 264 264 264 263 263 262 262 262 262 261 261 261 261 261 261 261 260 261 260 261 261 261 261 261 261 261 261 260 260 260 260 261 261 261 260 260 260 260 260 260 260 260 260 260
277 277 277 277 277 277 276 276 276 276 275 275 275 275 274 274 274 274 273 273 273 273 272 272 272 271 271 270 270 270 269 269 268 268 267 267 266 266 266 265 265 265 265 264 264 264 263 263 262 262 262 261 261 261 261 260 260 260 260 260 260 260 260 260 260 260 260 260 260 260 260 259 260 260 260 260 260 259 259 259 259 259 259 259 259
280 279 279 279 279 279 278 278 278 277 277 277 277 276 276 276 275 275 275 274 274 274 273 273 273 272 272 271 271 271 270 270 269 268 268 267 267 266 266 265 265 265 264 264 264 264 263 263 263 263 262 262 262 261 261 261 261 260 260 260 260 259 259 259 260 260 260 259 259 259 259 259 259 259 259 260 260 260 259 259 259 259 259 258 258
282 282 281 281 281 280 280 280 279 279 279 279 278 278 278 277 277 277 276 276 276 275 275 274 274 274 273 273 272 272 271 271 270 270 269 269 268 267 267 266 266 265 264 264 264 263 263 263 263 262 262 262 262 261 261 261 261 261 260 260 260 260 259 259 259 259 259 259 259 259 258 259 258 258 258 258 259 259 259 259 258 258 258 258 258
284 284 283 283 282 282 282 281 281 281 281 280 280 279 279 279 278 278 277 277 277 276 276 276 275 275 274 274 274 273 273 272 272 271 271 270 270 269 268 268 267 266 266 265 264 264 263 263 263 262 262 262 261 261 261 261 261 260 260 260 260 260 259 259 259 259 259 259 259 258 258 258 258 258 258 258 258 258 259 259 259 258 258 258 258
288 287 286 286 286 285 285 284 283 283 282 282 282 281 281 280 280 279 279 278 278 277 277 277 276 276 275 275 275 274 274 273 273 272 272 271 271 270 270 269 269 268 267 267 266 265 265 264 263 263 262 262 262 261 261 260 260 260 260 260 260 259 259 259 259 259 259 259 259 259 258 258 257 257 257 257 257 257 257 258 259 259 258 257 257
292 292 290 290 289 288 288 287 286 286 285 284 284 283 283 282 282 281 281 280 280 279 279 278 277 277 276 276 275 275 274 274 274 273 273 272 272 271 271 270 270 270 269 268 268 267 266 266 265 264 264 263 263 262 261 261 260 260 259 259 259 259 259 259 258 258 258 258 258 258 258 258 257 257 256 256 256 256 256 256 257 258 258 257 257
298 296 295 294 293 293 292 291 291 290 290 289 288 287 287 286 286 285 284 283 283 282 281 281 280 279 278 278 277 276 276 275 275 274 273 273 272 272 271 271 271 270 270 269 269 268 268 267 267 266 266 265 264 263 263 262 261 261 260 260 259 259 258 258 258 258 257 257 257 258 258 258 257 257 256 256 255 255 255 255 256 256 257 257 257
300 299 298 297 296 296 296 295 295 294 293 293 292 291 290 289 289 288 287 286 286 285 284 283 283 282 281 280 279 279 278 277 277 276 275 274 274 273 272 272 271 271 270 270 269 269 268 268 268 267 267 266 266 265 264 263 263 262 261 261 260 260 259 259 258 258 257 257 257 257 257 257 257 257 256 256 255 255 254 254 254 255 256 256 257
301 299 298 297 296 296 295 295 294 294 293 292 292 291 290 290 289 289 288 287 287 286 286 285 285 284 283 283 282 281 281 280 279 278 278 277 276 275 275 274 273 272 272 271 270 269 269 268 268 267 267 267 266 266 265 264 264 263 262 262 261 260 260 259 259 258 258 257 257 257 256 256 256 256 256 255 255 254 254 253 253 254 254 255 256
303 301 299 298 297 296 295 294 293 292 291 291 290 290 289 288 288 287 286 286 286 285 285 284 284 283 283 283 282 282 281 281 280 280 280 279 279 278 277 277 276 275 274 273 272 271 270 269 269 268 268 267 267 266 265 265 264 264 263 263 262 261 260 260 259 259 258 258 258 257 257 257 256 256 256 255 255 254 253 253 252 252 252 253 254
307 304 302 301 300 298 297 295 294 293 293 292 291 290 290 289 288 287 286 285 284 284 283 283 282 281 281 281 281 281 280 279 279 279 279 279 279 279 279 278 278 277 276 275 274 273 272 271 270 269 268 268 267 267 266 266 265 264 263 263 262 262 262 261 260 259 259 258 258 257 257 257 257 257 256 256 256 255 254 253 252 251 251 251 252
309 307 305 304 303 302 300 298 297 297 296 295 295 294 293 292 291 290 289 287 286 285 284 283 282 281 281 280 280 279 279 278 278 278 278 278 278 278 278 278 278 277 277 277 276 275 274 273 272 271 269 269 268 267 267 266 266 265 264 264 263 262 262 261 261 260 260 259 258 257 257 257 256 256 256 256 256 256 255 255 254 252 251 251 250
310 309 308 308 307 306 304 302 301 300 300 299 299 298 298 297 295 294 293 291 290 289 287 286 284 283 282 282 281 280 279 279 278 278 277 277 277 277 277 277 277 277 277 277 277 277 276 275 274 273 272 271 269 268 268 267 266 266 265 265 264 263 262 262 261 260 260 259 259 258 258 257 257 256 256 256 256 256 255 255 255 254 253 252 251
310 309 310 310 309 308 306 304 303 302 302 302 302 302 301 300 299 298 297 295 294 293 291 289 288 286 285 284 283 282 281 281 280 279 278 277 277 276 276 276 276 276 276 276 276 276 276 276 275 274 273 272 271 270 269 268 268 267 266 266 265 265 264 263 262 261 260 260 259 258 258 258 257 257 256 256 255 255 255 255 254 254 254 253 252
308 308 309 310 310 309 308 306 306 305 305 305 304 304 304 304 303 302 300 299 297 295 293 291 290 288 287 286 285 285 284 283 283 282 280 280 279 278 278 277 277 277 276 276 276 276 276 275 275 274 273 273 272 271 270 270 269 268 268 267 266 266 265 264 264 263 262 261 260 259 258 258 257 257 257 257 256 255 255 254 254 254 253 253 252
307 308 309 310 311 310 309 309 308 308 307 307 307 306 306 306 305 303 302 300 298 296 294 293 292 290 289 288 287 287 286 286 285 284 284 283 282 281 280 279 279 279 278 278 277 277 276 276 275 275 274 273 273 272 271 270 270 269 268 268 267 266 265 265 264 264 263 262 262 261 260 259 258 257 256 256 256 256 255 255 254 253 253 252 252
306 308 310 311 311 311 311 311 310 310 310 309 309 308 308 307 305 304 302 301 299 297 295 294 292 291 290 289 288 287 287 286 285 285 284 284 283 281 281 281 280 280 279 278 278 277 277 277 276 276 275 275 274 273 272 271 270 269 268 268 267 266 266 265 264 264 263 262 262 262 261 261 260 259 257 256 255 255 255 255 254 254 253 252 251
307 309 310 311 311 312 312 312 312 311 311 311 310 309 308 307 306 304 303 301 300 298 296 294 293 292 290 289 288 287 286 285 285 284 284 283 282 281 280 280 280 279 279 278 277 277 277 277 277 276 276 276 275 274 273 272 271 270 269 268 267 266 265 265 264 264 263 263 262 261 261 261 260 260 259 258 257 255 254 254 254 254 254 253 252
309 311 311 312 312 313 313 313 312 312 312 311 310 309 308 307 306 304 303 301 299 297 295 293 292 291 289 288 287 286 285 285 284 284 284 283 281 280 280 280 280 280 279 278 278 277 277 277 276 276 276 276 275 274 274 273 272 271 269 268 267 266 265 264 264 263 263 262 262 261 261 260 260 260 259 259 258 257 256 255 254 253 253 253 253
310 311 312 312 313 313 313 313 313 312 312 312 311 309 308 307 306 305 304 303 301 299 298 297 296 294 293 291 290 289 288 287 286 285 284 283 282 281 281 281 281 280 279 279 278 277 277 277 276 276 276 275 275 275 274 273 272 271 270 269 268 267 266 265 264 264 263 262 262 261 261 260 260 259 259 258 258 258 257 256 255 254 253 252 251
310 311 311 312 313 313 313 313 313 313 313 312 312 311 311 310 310 309 307 305 304 302 301 300 299 297 296 294 293 292 291 290 289 288 286 285 283 283 283 282 281 281 280 279 279 278 277 277 276 276 276 275 275 274 274 273 273 272 271 270 269 268 268 267 266 265 264 263 262 261 260 259 259 259 258 258 258 258 257 257 256 256 255 253 252
310 311 312 313 314 314 314 314 314 314 315 315 315 314 313 312 310 308 306 304 303 302 301 300 298 297 296 294 293 292 291 290 289 288 287 286 285 285 284 283 282 281 281 280 279 278 278 277 276 276 275 275 274 274 274 273 273 272 272 271 270 269 269 267 266 265 264 263 262 261 260 259 258 258 258 258 258 257 257 257 256 256 256 255 254
311 313 314 314 314 314 314 314 316 317 317 317 316 314 312 310 309 307 306 305 304 303 302 301 299 298 297 295 294 293 292 290 289 288 287 286 286 286 285 284 283 282 281 280 279 279 278 277 276 276 275 275 274 274 274 273 273 272 272 271 270 270 269 268 267 266 265 264 263 262 260 259 259 258 258 258 257 257 257 257 256 256 256 255 255
314 314 314 314 313 314 315 316 317 318 318 316 315 314 312 311 310 309 308 306 305 304 303 302 300 299 297 296 295 294 293 291 290 289 287 287 286 286 285 284 283 282 281 280 280 279 278 278 277 276 276 275 275 274 274 273 273 272 272 271 270 270 269 269 268 267 266 265 264 263 262 261 260 259 258 258 257 257 257 257 256 256 256 256 255
314 314 313 313 314 315 317 318 319 318 317 316 315 314 313 312 310 310 309 308 307 306 305 304 302 301 300 298 297 296 294 293 291 290 288 287 286 286 285 284 283 282 282 281 281 280 279 278 277 277 276 275 275 274 274 273 273 272 272 271 271 270 270 269 269 268 267 266 265 264 263 262 262 261 259 259 258 257 257 256 256 256 255 255 255
313 313 313 314 316 317 318 319 319 318 317 316 315 314 313 312 312 311 311 310 310 309 308 307 305 304 303 301 300 299 297 295 294 292 291 289 288 287 286 285 284 284 283 283 282 281 280 279 278 277 276 276 275 275 274 274 273 273 272 272 271 271 270 270 269 268 267 267 266 265 265 264 263 262 261 260 259 258 257 256 256 256 255 255 254
312 313 315 316 317 318 319 319 319 318 317 316 316 316 315 315 314 314 313 313 312 311 310 309 307 306 305 303 302 301 299 298 296 295 293 291 290 288 287 286 285 284 284 283 282 282 281 280 279 278 277 276 275 274 274 274 273 273 272 272 272 271 271 270 269 268 267 267 266 266 265 264 263 262 261 261 260 259 258 257 256 256 255 254 254
314 316 317 318 318 319 320 320 319 319 319 319 319 318 317 316 316 316 315 315 314 312 311 310 309 308 307 305 304 303 301 300 298 296 295 293 292 290 289 287 286 285 284 283 282 282 281 280 279 277 276 275 275 274 274 273 273 272 272 271 271 271 271 270 268 268 267 267 266 266 265 264 264 263 262 261 261 260 259 258 257 256 256 255 254
317 318 318 319 319 321 321 321 321 322 322 321 320 319 318 318 318 318 317 316 315 314 313 312 311 310 309 308 307 305 303 302 300 298 296 295 293 292 290 289 287 286 285 284 283 282 281 280 279 278 277 276 275 274 274 273 273 272 272 271 271 271 270 269 269 268 268 267 266 266 265 265 264 263 262 262 261 260 259 258 258 257 256 256 255
320 319 319 320 322 323 324 324 324 324 324 323 323 322 321 321 321 320 320 319 318 317 316 315 314 313 312 311 310 308 306 304 302 300 299 297 295 294 292 291 289 288 286 285 284 283 282 281 279 278 277 276 275 275 274 274 273 273 272 272 271 271 270 269 269 268 268 267 267 266 265 265 265 264 263 262 261 260 259 259 258 258 257 256 255
321 321 321 323 324 326 327 326 326 326 326 326 326 325 324 324 323 323 322 321 320 319 317 316 315 314 314 313 311 310 309 307 305 303 301 299 298 296 295 293 291 290 288 287 286 284 283 282 281 280 278 277 276 276 275 275 274 274 274 273 272 271 270 269 269 268 268 268 267 267 266 265 265 264 263 261 260 260 260 260 259 258 257 256 256
323 323 324 326 328 329 329 329 329 329 329 328 327 326 326 325 325 325 324 323 321 320 319 318 317 316 315 314 313 312 311 309 307 306 304 302 300 299 297 296 294 292 290 289 287 286 285 283 282 281 280 278 277 277 276 276 275 275 274 274 273 272 270 269 269 268 268 267 267 267 266 265 265 264 263 262 262 262 261 261 260 259 259 258 257
326 327 328 330 332 332 332 331 332 331 330 330 329 328 328 327 327 326 325 324 323 321 320 319 319 318 317 316 315 314 313 311 309 308 306 305 303 301 300 298 295 294 292 290 289 287 286 285 283 282 280 279 278 278 277 276 276 275 275 274 273 272 271 270 269 268 268 267 267 266 266 265 265 265 265 265 265 264 262 261 260 259 259 258 257
329 330 332 333 334 334 334 333 333 332 331 331 330 330 329 328 328 327 326 325 324 323 322 321 321 320 319 318 317 316 315 313 312 310 309 308 306 304 302 300 297 296 294 292 290 289 287 286 284 283 282 281 280 279 278 277 276 276 275 275 274 273 271 270 269 268 268 267 266 266 265 265 265 266 267 266 265 264 262 261 260 259 259 258 257
332 333 334 335 335 335 334 333 333 332 332 332 331 331 330 329 328 327 327 326 325 325 324 323 323 322 321 320 319 318 317 316 315 313 312 311 309 307 305 303 300 298 295 293 291 290 288 287 286 285 284 283 282 281 279 278 277 277 277 276 275 273 271 270 269 268 267 266 265 265 265 265 266 266 266 266 265 264 263 261 261 261 260 258 256
333 334 335 336 336 335 334 334 334 333 333 333 333 332 331 330 329 329 328 328 327 327 326 325 325 324 323 322 321 320 319 318 317 316 315 314 312 310 308 306 303 300 297 295 293 291 290 288 287 286 285 284 283 281 280 279 279 279 278 277 275 273 271 270 269 268 267 266 266 266 266 266 266 266 265 265 265 264 264 263 262 261 260 259 258
335 335 336 336 336 336 335 335 335 334 334 334 334 333 332 331 331 330 330 330 329 329 328 328 327 326 325 324 323 322 322 321 320 319 318 317 315 313 311 308 305 302 300 297 295 293 291 290 289 287 286 285 283 283 282 281 281 280 279 276 274 272 270 269 269 268 268 267 267 267 267 266 265 265 264 264 264 264 264 263 262 260 260 260 260
335 336 337 337 337 336 336 336 336 335 335 335 334 334 333 333 332 332 332 331 331 331 330 329 329 328 327 326 325 324 324 323 323 322 321 319 317 315 313 311 308 305 303 301 298 296 293 292 290 288 287 286 285 284 284 284 282 281 279 277 274 272 271 270 269 269 268 268 267 267 266 266 265 264 264 263 263 263 263 261 260 260 260 260 259
336 336 337 338 338 337 337 337 337 336 336 336 336 335 335 334 333 333 333 333 333 333 332 331 330 329 328 327 327 326 326 326 325 324 322 321 319 317 316 313 310 308 306 304 302 299 296 294 293 291 290 289 288 287 286 286 284 282 280 278 276 274 272 271 270 269 269 268 268 268 267 266 265 264 264 264 264 263 262 261 260 260 260 259 258
337 337 338 338 339 338 338 337 337 337 337 337 337 336 336 335 335 335 334 335 335 334 334 333 332 331 330 329 329 329 328 328 327 326 324 323 321 320 318 315 313 311 309 306 304 301 299 297 295 294 293 292 291 289 288 287 286 284 282 280 278 275 273 271 270 270 269 269 269 269 267 266 265 265 265 264 264 263 262 262 261 260 259 258 257
337 337 338 339 339 339 338 338 338 338 338 338 338 338 337 336 336 336 336 336 336 336 335 335 334 333 332 331 331 331 331 330 329 328 326 325 324 322 321 318 316 314 311 309 306 304 301 299 298 297 296 294 292 291 290 288 287 285 283 282 279 276 273 272 271 271 271 270 270 269 268 267 266 266 265 264 264 263 263 262 260 259 257 256 256
337 338 339 340 340 339 338 338 339 339 339 338 339 339 338 337 337 337 337 337 337 337 337 336 335 334 333 333 333 333 333 332 331 330 328 327 326 325 323 321 319 316 314 312 309 307 304 302 300 300 298 296 294 293 292 290 288 286 284 281 279 276 275 274 273 272 272 271 269 268 268 268 267 266 266 265 264 264 262 261 259 258 257 256 255
338 339 339 340 340 339 339 339 340 339 339 339 339 339 339 339 338 338 338 338 338 338 338 338 337 336 335 335 335 335 335 334 333 332 330 329 328 327 325 324 321 319 317 314 312 310 307 305 304 303 301 299 298 297 295 292 289 287 283 280 278 277 277 276 275 274 272 270 269 269 270 269 268 267 266 266 265 264 262 260 258 257 256 255 254
338 339 340 340 340 340 340 340 340 340 340 340 340 340 340 339 339 339 339 339 339 339 339 339 338 337 336 336 337 337 337 336 335 334 333 331 330 329 328 326 324 321 319 316 314 312 310 308 307 306 304 302 301 300 298 295 292 288 284 282 281 280 280 279 278 275 272 270 270 270 270 269 269 268 267 266 265 264 262 260 258 255 254 253 252
338 339 340 341 341 340 340 340 340 340 341 341 341 341 341 340 340 340 340 340 340 340 340 340 339 338 338 338 338 338 338 337 336 335 334 334 334 333 331 329 327 325 322 319 317 315 314 312 310 309 308 306 305 304 301 298 294 290 287 285 284 283 283 282 279 275 273 273 272 271 270 269 269 268 267 267 266 264 262 260 257 254 253 252 251
339 340 341 341 341 341 341 341 341 341 341 341 341 341 341 341 341 341 341 341 341 341 341 341 340 339 339 339 339 339 339 339 337 336 335 335 336 336 335 332 330 327 325 322 319 318 317 315 313 312 311 309 308 306 304 301 298 295 292 291 290 288 286 282 278 275 274 274 273 272 271 270 269 268 268 267 266 264 262 259 256 253 252 251 250
339 340 341 341 341 341 341 341 342 342 342 342 342 342 342 342 341 341 341 341 341 341 341 341 340 340 339 339 340 340 340 340 338 337 336 335 335 337 338 337 334 331 328 325 322 320 319 318 316 315 313 311 309 307 305 302 299 297 295 294 294 293 289 284 281 279 277 275 273 272 271 270 269 268 268 268 267 265 262 259 256 253 251 249 249
Height
10486 10483 10479 10475 10472 10468 10465 10462 10458 10455 10452 10448 10445 10441 10438 10435 10432 10429 10426 10423 10420 10417 10415 10412 10410 10408 10406 10404 10402 10400 10399 10398 10396 10394 10392 10389 10387 10385 10384 10383 10383 10383 10383 10383 10383 10382 10380 10378 10378 10378 10379 10379 10379 10379 10379 10380 10383 10385 10385 10386 10386 10386 10385 10387 10391 10394 10397 10399 10401 10404 10405 10405 10407 10410 10412 10414 10417 10419 10421 10422 10425 10427 10427 10429 10433
10473 10468 10464 10460 10456 10453 10449 10446 10442 10439 10435 10431 10428 10424 10420 10417 10413 10410 10407 10403 10400 10397 10394 10392 10389 10386 10384 10382 10379 10377 10376 10375 10374 10373 10371 10368 10365 10363 10361 10360 10359 10359 10360 10360 10359 10358 10357 10355 10354 10354 10355 10356 10356 10355 10356 10357 10359 10360 10361 10362 10363 10364 10363 10363 10366 10371 10374 10377 10379 10382 10383 10383 10385 10388 10391 10394 10396 10397 10398 10401 10405 10407 10408 10409 10413
10459 10454 10450 10446 10442 10438 10435 10431 10427 10423 10419 10415 10411 10407 10404 10400 10396 10392 10389 10385 10382 10378 10375 10372 10369 10366 10363 10361 10358 10355 10353 10352 10351 10351 10349 10347 10344 10341 10339 10337 10335 10335 10336 10337 10336 10335 10334 10332 10330 10330 10331 10332 10332 10332 10333 10334 10336 10336 10337 10339 10339 10340 10341 10341 10341 10345 10350 10355 10357 10360 10362 10361 10362 10366 10369 10372 10372 10373 10377 10380 10384 10387 10389 10390 10393
10445 10441 10436 10432 10428 10424 10421 10416 10412 10408 10404 10399 10395 10392 10388 10384 10379 10375 10371 10367 10364 10360 10357 10354 10350 10347 10344 10341 10338 10335 10332 10331 10330 10329 10328 10325 10323 10320 10318 10315 10313 10312 10313 10313 10313 10311 10310 10309 10307 10306 10307 10309 10310 10309 10310 10311 10313 10313 10314 10316 10317 10317 10318 10318 10318 10319 10325 10330 10333 10337 10340 10341 10341 10343 10346 10349 10349 10352 10356 10357 10361 10366 10369 10370 10373
10432 10428 10423 10419 10414 10410 10406 10402 10397 10393 10389 10384 10379 10376 10372 10367 10363 10358 10353 10349 10346 10342 10338 10335 10331 10327 10324 10321 10318 10315 10312 10309 10308 10307 10305 10304 10302 10299 10297 10293 10291 10290 10291 10290 10290 10289 10288 10286 10284 10283 10284 10285 10287 10287 10287 10288 10289 10290 10291 10293 10294 10295 10296 10296 10295 10295 10300 10305 10309 10313 10317 10319 10322 10323 10323 10324 10326 10331 10334 10334 10339 10345 10348 10350 10352
10418 10413 10409 10405 10400 10396 10391 10386 10381 10377 10373 10368 10363 10359 10355 10350 10346 10341 10336 10331 10327 10324 10320 10315 10312 10308 10304 10301 10297 10294 10291 10288 10286 10284 10282 10281 10279 10277 10275 10271 10268 10268 10268 10268 10267 10266 10265 10263 10261 10260 10260 10262 10263 10264 10264 10264 10265 10266 10268 10270 10271 10272 10275 10275 10273 10272 10276 10280 10285 10290 10293 10295 10301 10304 10303 10303 10304 10305 10310 10315 10319 10322 10326 10330 10333
10405 10400 10396 10391 10387 10381 10376 10371 10366 10362 10357 10352 10348 10343 10338 10334 10329 10324 10319 10314 10309 10305 10301 10296 10292 10288 10284 10281 10277 10273 10270 10266 10264 10261 10259 10257 10256 10254 10252 10248 10246 10244 10245 10245 10245 10244 10242 10240 10237 10236 10237 10238 10240 10241 10241 10241 10242 10242 10244 10246 10248 10249 10251 10253 10253 10251 10251 10255 10261 10267 10270 10272 10277 10281 10282 10285 10286 10284 10285 10291 10297 10300 10304 10309 10312
10393 10388 10383 10378 10374 10368 10363 10358 10353 10348 10343 10337 10332 10328 10323 10318 10313 10308 10302 10297 10292 10287 10283 10279 10274 10269 10265 10261 10257 10253 10249 10246 10242 10239 10236 10235 10233 10230 10228 10225 10222 10220 10220 10222 10222 10221 10219 10217 10214 10212 10213 10215 10217 10217 10217 10218 10219 10219 10220 10222 10224 10226 10227 10230 10232 10231 10230 10230 10235 10241 10247 10251 10254 10258 10260 10263 10267 10269 10267 10264 10269 10278 10283 10287 10290
10382 10377 10371 10366 10361 10356 10350 10344 10340 10335 10330 10324 10318 10313 10308 10303 10297 10292 10286 10281 10276 10271 10266 10261 10256 10252 10247 10242 10238 10234 10230 10226 10222 10218 10215 10212 10211 10208 10205 10202 10198 10196 10196 10198 10198 10196 10195 10194 10191 10189 10189 10191 10192 10193 10193 10194 10195 10196 10197 10198 10200 10201 10203 10206 10208 10210 10210 10209 10210 10214 10221 10228 10232 10235 10239 10241 10245 10251 10253 10246 10244 10251 10259 10265 10269
10371 10365 10360 10355 10350 10345 10338 10332 10326 10322 10317 10311 10305 10299 10293 10288 10283 10277 10270 10265 10260 10255 10250 10244 10239 10234 10229 10224 10220 10215 10210 10206 10202 10198 10194 10191 10189 10187 10184 10180 10176 10173 10172 10174 10174 10172 10171 10169 10168 10166 10167 10167 10168 10169 10169 10170 10171 10172 10173 10174 10176 10177 10179 10182 10184 10186 10188 10188 10188 10190 10194 10200 10206 10212 10216 10220 10223 10229 10235 10234 10228 10227 10233 10240 10245
10360 10354 10348 10343 10338 10332 10326 10319 10313 10308 10303 10297 10292 10286 10279 10273 10268 10261 10254 10249 10244 10239 10233 10227 10221 10216 10211 10206 10202 10197 10192 10188 10183 10179 10175 10172 10169 10166 10163 10159 10155 10152 10151 10151 10151 10150 10147 10145 10144 10143 10143 10143 10144 10144 10145 10145 10146 10148 10149 10150 10151 10153 10155 10157 10160 10162 10164 10166 10167 10168 10170 10173 10179 10185 10190 10196 10201 10206 10212 10217 10215 10210 10211 10216 10219
10352 10345 10338 10332 10327 10321 10315 10308 10302 10296 10290 10284 10278 10272 10266 10260 10253 10247 10239 10232 10228 10223 10216 10209 10203 10197 10192 10188 10182 10178 10174 10168 10163 10159 10154 10151 10149 10146 10143 10139 10135 10132 10130 10129 10129 10128 10126 10123 10122 10121 10120 10120 10120 10120 10120 10121 10122 10123 10124 10125 10127 10128 10131 10133 10136 10138 10140 10142 10144 10145 10148 10150 10152 10157 10163 10169 10176 10182 10189 10195 10198 10195 10194 10197 10196
10344 10337 10329 10323 10318 10313 10307 10300 10293 10286 10279 10273 10266 10260 10254 10247 10240 10235 10226 10218 10213 10208 10200 10193 10187 10180 10174 10169 10163 10159 10155 10149 10144 10139 10134 10131 10128 10125 10122 10118 10114 10111 10109 10108 10107 10106 10104 10102 10101 10100 10099 10097 10097 10096 10096 10097 10098 10099 10100 10101 10102 10104 10107 10110 10111 10113 10115 10118 10120 10121 10124 10127 10129 10131 10136 10141 10148 10155 10163 10171 10176 10176 10178 10181 10178
10336 10328 10320 10314 10309 10304 10298 10291 10284 10277 10270 10263 10256 10249 10243 10236 10228 10223 10215 10205 10199 10193 10186 10179 10172 10164 10157 10151 10145 10141 10137 10131 10125 10119 10115 10111 10108 10105 10101 10097 10093 10090 10087 10086 10085 10084 10082 10081 10080 10079 10078 10076 10075 10074 10074 10075 10075 10076 10076 10077 10078 10080 10083 10086 10088 10089 10092 10094 10096 10098 10100 10103 10105 10107 10110 10115 10120 10127 10134 10144 10152 10155 10159 10163 10162
10327 10320 10312 10305 10299 10294 10287 10281 10273 10266 10259 10251 10244 10237 10231 10224 10216 10209 10202 10193 10186 10179 10173 10166 10157 10149 10142 10135 10129 10124 10119 10114 10108 10102 10097 10093 10089 10085 10082 10077 10073 10069 10066 10064 10062 10061 10060 10059 10059 10058 10056 10055 10054 10053 10053 10053 10053 10054 10054 10054 10055 10057 10059 10062 10064 10066 10068 10070 10073 10075 10078 10080 10082 10084 10087 10090 10094 10099 10106 10114 10123 10131 10137 10143 10144
10318 10311 10304 10296 10290 10283 10276 10269 10262 10254 10247 10239 10231 10223 10217 10209 10201 10194 10187 10178 10170 10163 10157 10150 10141 10134 10127 10120 10114 10108 10103 10097 10092 10087 10082 10077 10072 10067 10063 10059 10054 10049 10045 10042 10041 10039 10038 10037 10037 10036 10035 10034 10033 10032 10032 10031 10032 10032 10032 10032 10033 10035 10037 10039 10040 10042 10044 10046 10049 10053 10055 10057 10059 10061 10064 10068 10070 10074 10079 10085 10093 10102 10111 10119 10122
10307 10299 10293 10286 10279 10272 10264 10258 10250 10242 10235 10227 10218 10210 10202 10195 10186 10179 10171 10162 10154 10146 10139 10131 10123 10116 10109 10102 10095 10090 10084 10080 10076 10072 10067 10062 10056 10050 10046 10041 10037 10031 10027 10023 10021 10018 10016 10016 10015 10015 10014 10013 10012 10012 10011 10011 10011 10011 10011 10011 10012 10014 10016 10017 10018 10020 10022 10024 10026 10029 10032 10035 10037 10039 10042 10045 10048 10051 10055 10060 10066 10073 10082 10092 10098
10297 10288 10282 10276 10268 10261 10253 10246 10239 10231 10223 10215 10206 10197 10189 10180 10171 10164 10156 10147 10138 10129 10121 10113 10106 10099 10091 10083 10076 10069 10063 10059 10056 10054 10050 10045 10039 10033 10029 10025 10021 10016 10012 10007 10003 10000 9998 9997 9996 9994 9992 9992 9991 9991 9991 9991 9991 9991 9990 9991 9992 9993 9995 9995 9996 9998 10000 10002 10004 10006 10009 10012 10014 10016 10019 10022 10026 10029 10032 10036 10041 10047 10054 10063 10071
10287 10279 10272 10266 10258 10250 10242 10234 10227 10219 10211 10203 10194 10185 10177 10167 10158 10149 10141 10133 10123 10113 10104 10096 10088 10081 10074 10066 10058 10050 10043 10038 10034 10032 10030 10026 10020 10014 10009 10006 10003 10000 9996 9991 9986 9983 9980 9978 9977 9975 9973 9972 9971 9971 9971 9971 9971 9970 9970 9971 9972 9973 9974 9974 9975 9976 9978 9980 9982 9985 9987 9990 9992 9994 9997 9999 10002 10006 10009 10013 10017 10023 10028 10035 10044
10278 10271 10264 10256 10247 10239 10230 10222 10215 10206 10198 10189 10180 10172 10163 10154 10145 10136 10128 10119 10109 10098 10089 10080 10072 10064 10057 10049 10040 10032 10025 10018 10013 10009 10008 10006 10000 9993 9988 9985 9983 9980 9977 9973 9968 9964 9961 9959 9957 9956 9954 9953 9952 9952 9951 9951 9951 9951 9951 9951 9952 9953 9954 9954 9953 9955 9957 9958 9961 9963 9964 9967 9969 9973 9975 9977 9980 9982 9986 9990 9993 9999 10004 10011 10018
10268 10261 10254 10246 10237 10228 10219 10210 10202 10194 10185 10176 10167 10159 10150 10142 10133 10124 10115 10106 10095 10085 10075 10066 10057 10049 10042 10034 10026 10018 10010 10002 9996 9991 9988 9986 9981 9973 9967 9965 9964 9961 9957 9953 9950 9945 9941 9939 9937 9935 9934 9934 9933 9932 9932 9932 9932 9931 9931 9932 9932 9932 9933 9933 9933 9934 9936 9938 9940 9942 9943 9944 9946 9950 9953 9955 9957 9960 9963 9967 9971 9976 9981 9987 9995
10256 10249 10241 10234 10225 10216 10208 10199 10190 10182 10173 10164 10155 10146 10138 10128 10119 10109 10101 10091 10080 10071 10062 10053 10044 10036 10028 10020 10012 10004 9996 9988 9982 9976 9973 9969 9962 9954 9949 9947 9945 9941 9938 9935 9931 9927 9924 9921 9918 9916 9915 9914 9913 9912 9912 9912 9912 9912 9912 9912 9912 9913 9913 9913 9914 9914 9915 9918 9920 9921 9922 9922 9924 9927 9930 9931 9934 9938 9941 9946 9949 9953 9959 9963 9970
10242 10235 10228 10220 10211 10203 10195 10187 10178 10169 10161 10152 10142 10133 10124 10115 10104 10095 10086 10077 10066 10056 10048 10040 10032 10023 10015 10006 9998 9990 9982 9974 9968 9962 9957 9952 9944 9937 9932 9930 9927 9923 9919 9916 9913 9910 9907 9904 9901 9899 9896 9895 9893 9892 9892 9892 9892 9893 9893 9893 9893 9893 9894 9894 9895 9895 9897 9898 9900 9901 9901 9901 9903 9906 9908 9909 9912 9916 9920 9925 9928 9932 9938 9942 9946
10231 10223 10215 10207 10198 10190 10182 10174 10165 10156 10147 10138 10128 10118 10108 10098 10088 10078 10068 10059 10048 10038 10030 10023 10015 10006 9998 9989 9981 9973 9966 9959 9952 9946 9940 9933 9926 9920 9917 9914 9910 9905 9902 9899 9896 9893 9890 9887 9884 9882 9879 9877 9875 9874 9873 9873 9873 9874 9874 9874 9874 9874 9875 9876 9877 9877 9878 9879 9880 9881 9880 9881 9883 9885 9887 9888 9891 9895 9899 9903 9907 9911 9916 9921 9925
10220 10213 10204 10195 10186 10177 10169 10160 10151 10142 10132 10122 10111 10100 10088 10078 10067 10057 10048 10039 10030 10020 10013 10006 9998 9989 9980 9971 9964 9957 9949 9942 9935 9928 9922 9915 9908 9904 9901 9897 9892 9888 9885 9882 9879 9876 9873 9871 9868 9865 9862 9860 9858 9857 9855 9855 9855 9855 9856 9855 9855 9856 9857 9858 9859 9859 9860 9861 9861 9861 9861 9862 9863 9865 9866 9868 9871 9875 9879 9882 9886 9889 9893 9898 9904
10210 10202 10193 10183 10174 10165 10156 10147 10137 10126 10115 10104 10093 10083 10072 10062 10053 10043 10033 10024 10015 10006 9998 9990 9982 9974 9965 9956 9949 9942 9935 9928 9921 9913 9905 9897 9891 9888 9885 9880 9875 9871 9868 9864 9861 9859 9856 9854 9851 9848 9845 9843 9841 9840 9838 9838 9838 9838 9838 9838 9837 9838 9839 9840 9841 9841 9841 9842 9842 9842 9842 9843 9844 9846 9847 9850 9853 9856 9859 9862 9865 9868 9871 9877 9883
10197 10188 10179 10170 10162 10153 10144 10134 10123 10112 10101 10090 10080 10070 10060 10050 10041 10031 10020 10009 10001 9992 9983 9974 9966 9957 9949 9941 9934 9927 9921 9914 9907 9900 9892 9884 9877 9873 9869 9864 9859 9855 9851 9847 9844 9841 9839 9836 9834 9831 9829 9827 9825 9823 9822 9822 9822 9821 9821 9821 9821 9821 9822 9822 9823 9823 9823 9823 9823 9823 9823 9824 9826 9828 9830 9833 9836 9838 9840 9843 9845 9848 9852 9857 9863
10183 10174 10166 10159 10151 10142 10132 10122 10110 10099 10089 10079 10068 10057 10046 10035 10025 10016 10006 9996 9987 9978 9970 9960 9951 9943 9935 9927 9919 9913 9906 9899 9893 9886 9879 9871 9864 9858 9853 9848 9843 9839 9835 9832 9829 9826 9823 9820 9817 9815 9813 9812 9809 9807 9806 9806 9806 9805 9805 9805 9805 9805 9806 9806 9806 9806 9805 9805 9805 9804 9805 9807 9809 9812 9814 9816 9817 9820 9823 9825 9827 9830 9834 9839 9845
10172 10164 10156 10148 10139 10129 10119 10108 10097 10086 10076 10065 10055 10044 10033 10022 10011 10002 9992 9982 9972 9964 9955 9946 9937 9928 9921 9913 9905 9898 9891 9885 9878 9871 9864 9858 9851 9844 9839 9834 9829 9825 9821 9818 9815 9811 9808 9805 9802 9800 9798 9796 9794 9792 9791 9791 9790 9789 9789 9789 9790 9790 9791 9791 9790 9789 9787 9786 9786 9787 9788 9790 9792 9794 9796 9798 9800 9803 9806 9808 9809 9812 9817 9823 9827
10161 10154 10146 10136 10126 10115 10105 10095 10084 10074 10063 10052 10042 10031 10019 10008 9997 9987 9977 9966 9956 9947 9939 9931 9922 9913 9906 9898 9890 9883 9876 9869 9862 9856 9850 9843 9837 9831 9825 9820 9815 9811 9807 9804 9800 9796 9793 9790 9788 9786 9783 9781 9779 9777 9776 9776 9775 9774 9774 9774 9775 9776 9777 9776 9775 9773 9771 9769 9769 9771 9772 9774 9775 9777 9778 9780 9783 9785 9788 9790 9792 9794 9800 9806 9810
10152 10143 10134 10124 10114 10104 10094 10084 10073 10062 10051 10038 10027 10015 10003 9992 9982 9972 9961 9951 9941 9931 9923 9915 9907 9900 9892 9884 9877 9869 9862 9854 9848 9841 9835 9829 9823 9817 9812 9807 9803 9798 9794 9790 9785 9782 9779 9777 9774 9771 9768 9766 9764 9762 9761 9761 9760 9759 9759 9760 9761 9762 9763 9762 9759 9756 9754 9754 9754 9755 9756 9757 9758 9759 9761 9763 9766 9768 9770 9773 9775 9778 9783 9788 9794
10140 10131 10122 10112 10103 10093 10084 10073 10061 10049 10036 10023 10010 10000 9989 9978 9968 9958 9948 9938 9928 9918 9909 9901 9893 9886 9878 9871 9863 9856 9848 9841 9834 9828 9822 9815 9810 9804 9799 9794 9789 9785 9781 9776 9772 9768 9765 9763 9760 9756 9753 9751 9749 9748 9748 9747 9745 9744 9745 9746 9748 9749 9748 9746 9742 9740 9740 9739 9739 9739 9740 9741 9742 9743 9745 9747 9749 9751 9753 9756 9759 9763 9767 9772 9776
10127 10118 10108 10099 10090 10081 10070 10059 10046 10033 10020 10008 9995 9984 9974 9964 9954 9945 9934 9925 9915 9905 9896 9887 9879 9871 9864 9856 9849 9842 9835 9828 9821 9815 9809 9802 9797 9791 9786 9781 9776 9772 9767 9762 9759 9755 9752 9749 9746 9743 9740 9737 9735 9734 9735 9734 9731 9730 9731 9734 9737 9737 9733 9730 9727 9726 9725 9724 9724 9724 9724 9724 9725 9727 9730 9731 9733 9734 9736 9740 9745 9749 9752 9756 9759
10115 10105 10096 10087 10078 10068 10056 10043 10030 10018 10006 9994 9981 9969 9958 9948 9939 9930 9920 9911 9902 9892 9883 9874 9865 9857 9849 9841 9834 9827 9821 9814 9808 9802 9795 9789 9783 9778 9772 9767 9763 9758 9753 9749 9746 9742 9739 9736 9733 9730 9727 9724 9722 9722 9722 9720 9718 9717 9718 9721 9725 9724 9720 9716 9713 9711 9710 9709 9709 9710 9710 9710 9710 9711 9713 9715 9716 9718 9722 9727 9732 9734 9737 9740 9742
10105 10095 10086 10076 10066 10055 10043 10029 10017 10004 9991 9979 9967 9955 9944 9933 9924 9915 9906 9897 9888 9880 9871 9862 9854 9846 9837 9829 9822 9814 9807 9801 9794 9788 9782 9776 9770 9765 9759 9755 9750 9745 9740 9736 9733 9730 9726 9723 9720 9718 9715 9711 9709 9709 9709 9707 9705 9705 9706 9709 9712 9711 9707 9704 9700 9697 9696 9695 9695 9695 9696 9696 9695 9695 9696 9697 9700 9705 9710 9715 9717 9719 9721 9725 9727
10093 10083 10073 10062 10051 10039 10027 10014 10001 9988 9977 9966 9955 9944 9933 9922 9911 9902 9893 9884 9876 9867 9859 9851 9843 9835 9827 9819 9811 9803 9796 9789 9782 9775 9769 9763 9758 9752 9747 9742 9737 9732 9728 9724 9721 9718 9714 9711 9709 9706 9703 9699 9697 9697 9697 9695 9693 9692 9694 9697 9698 9697 9694 9690 9687 9684 9683 9682 9681 9681 9682 9681 9680 9679 9679 9682 9687 9695 9700 9702 9702 9704 9708 9710 9712
10078 10068 10056 10045 10033 10022 10010 9998 9986 9975 9965 9954 9944 9933 9922 9911 9901 9891 9882 9873 9864 9855 9847 9839 9831 9823 9815 9808 9800 9793 9786 9778 9771 9764 9758 9752 9747 9741 9736 9731 9725 9721 9716 9713 9709 9706 9703 9700 9697 9694 9692 9688 9686 9686 9686 9684 9681 9680 9682 9685 9686 9684 9681 9678 9674 9672 9671 9669 9668 9668 9668 9667 9665 9665 9666 9670 9676 9681 9685 9687 9688 9691 9694 9696 9697
10063 10054 10043 10032 10021 10010 9998 9986 9976 9965 9954 9943 9933 9922 9912 9901 9892 9882 9873 9864 9854 9845 9836 9827 9819 9811 9804 9796 9789 9782 9774 9767 9761 9754 9748 9742 9736 9731 9725 9719 9714 9710 9705 9701 9698 9694 9691 9688 9685 9683 9681 9678 9675 9675 9675 9673 9669 9668 9671 9674 9674 9672 9668 9665 9662 9659 9658 9657 9656 9655 9654 9654 9654 9654 9656 9659 9661 9664 9669 9672 9674 9677 9680 9681 9681
10052 10041 10032 10022 10012 10001 9990 9979 9968 9957 9946 9935 9925 9914 9904 9893 9883 9873 9864 9855 9846 9836 9827 9818 9810 9801 9793 9786 9778 9771 9764 9757 9750 9744 9738 9732 9726 9720 9714 9709 9704 9699 9694 9690 9687 9683 9679 9677 9675 9672 9670 9668 9666 9664 9664 9662 9659 9658 9661 9664 9663 9659 9655 9652 9649 9647 9645 9644 9643 9642 9642 9644 9646 9646 9645 9645 9646 9650 9654 9658 9662 9665 9665 9663 9663
10045 10034 10024 10013 10004 9994 9984 9973 9961 9949 9938 9927 9916 9906 9895 9885 9875 9865 9855 9846 9836 9827 9818 9809 9801 9792 9784 9777 9769 9761 9754 9747 9740 9734 9728 9722 9716 9710 9704 9699 9694 9689 9684 9680 9677 9673 9669 9666 9665 9663 9660 9658 9656 9653 9652 9652 9650 9649 9652 9653 9651 9646 9642 9639 9637 9635 9633 9631 9630 9631 9632 9635 9636 9635 9633 9633 9634 9636 9641 9647 9651 9650 9648 9648 9652
10036 10026 10017 10006 9996 9986 9975 9963 9952 9940 9928 9918 9908 9898 9887 9877 9867 9857 9846 9837 9827 9818 9809 9800 9792 9784 9776 9768 9760 9752 9745 9738 9731 9725 9719 9713 9706 9700 9695 9690 9684 9679 9674 9670 9667 9664 9659 9656 9655 9653 9650 9648 9646 9643 9641 9642 9641 9639 9640 9642 9640 9634 9630 9628 9626 9623 9621 9620 9619 9621 9622 9623 9624 9623 9622 9622 9623 9625 9631 9636 9637 9634 9634 9639 9643
10027 10017 10008 9998 9987 9977 9965 9953 9942 9931 9920 9909 9900 9890 9879 9868 9858 9848 9839 9829 9819 9810 9801 9793 9784 9776 9768 9760 9752 9745 9737 9730 9723 9716 9710 9704 9698 9692 9686 9680 9674 9669 9665 9661 9658 9654 9649 9646 9644 9643 9641 9639 9637 9634 9632 9632 9631 9629 9628 9629 9628 9624 9620 9618 9615 9612 9610 9609 9609 9610 9610 9611 9612 9612 9611 9611 9613 9616 9620 9622 9622 9622 9625 9629 9629
10019 10010 10000 9990 9979 9967 9956 9945 9934 9923 9913 9902 9891 9881 9871 9860 9851 9841 9831 9822 9812 9803 9794 9786 9777 9769 9761 9754 9746 9738 9730 9723 9716 9709 9703 9697 9690 9684 9678 9672 9665 9660 9656 9652 9649 9644 9639 9636 9634 9633 9632 9629 9627 9626 9624 9622 9621 9619 9617 9617 9617 9614 9612 9609 9606 9602 9601 9599 9599 9599 9599 9600 9600 9600 9600 9601 9603 9605 9607 9609 9611 9613 9615 9616 9616
10011 10002 9992 9982 9970 9959 9948 9938 9927 9916 9905 9894 9884 9873 9863 9853 9843 9833 9824 9814 9805 9796 9787 9779 9770 9762 9755 9747 9740 9732 9724 9717 9709 9702 9696 9689 9683 9677 9671 9665 9658 9653 9648 9644 9640 9636 9631 9627 9625 9624 9623 9621 9618 9617 9615 9614 9611 9609 9607 9607 9606 9604 9602 9599 9597 9594 9592 9590 9589 9589 9589 9588 9589 9589 9590 9591 9592 9594 9597 9599 9602 9603 9603 9604 9604
10004 9994 9984 9973 9962 9952 9941 9930 9920 9908 9897 9887 9877 9866 9855 9845 9836 9826 9816 9807 9798 9789 9781 9773 9764 9756 9748 9741 9734 9726 9718 9711 9703 9696 9689 9682 9676 9670 9664 9657 9651 9645 9641 9636 9632 9628 9623 9619 9616 9615 9614 9613 9611 9608 9607 9605 9602 9600 9598 9597 9595 9593 9591 9590 9588 9586 9584 9582 9579 9578 9577 9578 9579 9579 9580 9580 9581 9584 9587 9590 9591 9592 9592 9593 9593
9996 9986 9976 9965 9955 9944 9933 9922 9911 9900 9890 9879 9869 9859 9849 9838 9829 9820 9810 9801 9792 9783 9775 9766 9759 9750 9742 9735 9727 9720 9713 9706 9699 9691 9684 9676 9670 9663 9657 9651 9644 9638 9633 9628 9624 9620 9616 9611 9609 9607 9605 9603 9602 9601 9599 9597 9594 9591 9589 9586 9584 9582 9581 9580 9579 9578 9576 9573 9569 9568 9568 9569 9569 9569 9569 9570 9571 9574 9577 9579 9581 9582 9582 9582 9583
9990 9980 9970 9959 9948 9937 9926 9914 9903 9893 9882 9872 9862 9852 9842 9832 9822 9813 9804 9795 9786 9777 9768 9760 9752 9745 9736 9729 9721 9714 9707 9701 9694 9687 9680 9672 9665 9658 9652 9645 9638 9632 9627 9622 9617 9613 9609 9604 9601 9599 9597 9594 9594 9593 9591 9589 9586 9583 9580 9577 9575 9573 9572 9572 9571 9569 9567 9563 9560 9559 9560 9560 9559 9559 9559 9560 9562 9564 9567 9569 9571 9572 9572 9572 9572
9983 9974 9964 9953 9942 9931 9919 9908 9897 9887 9876 9866 9855 9845 9835 9825 9815 9806 9797 9789 9780 9771 9762 9754 9746 9738 9731 9723 9715 9708 9701 9695 9689 9682 9675 9668 9660 9653 9647 9641 9633 9626 9620 9616 9611 9607 9603 9598 9595 9592 9589 9586 9586 9586 9584 9580 9578 9574 9571 9568 9567 9566 9565 9564 9562 9559 9557 9554 9553 9552 9552 9551 9550 9550 9550 9551 9552 9554 9557 9559 9561 9562 9562 9561 9561
9977 9967 9957 9947 9936 9925 9914 9903 9892 9881 9870 9860 9849 9839 9829 9819 9809 9800 9791 9782 9774 9765 9757 9748 9740 9733 9725 9718 9710 9703 9696 9689 9683 9677 9672 9665 9657 9648 9640 9635 9629 9622 9614 9609 9604 9600 9596 9592 9588 9585 9582 9578 9577 9577 9576 9573 9569 9565 9562 9560 9560 9560 9558 9556 9552 9549 9547 9547 9546 9545 9544 9543 9542 9541 9541 9541 9543 9545 9547 9549 9551 9552 9552 9551 9551
9970 9960 9950 9940 9930 9919 9908 9897 9886 9875 9864 9854 9843 9833 9823 9813 9804 9794 9785 9776 9768 9759 9751 9744 9735 9728 9720 9713 9705 9699 9692 9685 9678 9672 9666 9661 9656 9648 9638 9629 9623 9617 9610 9604 9598 9594 9590 9586 9582 9578 9575 9572 9570 9568 9567 9565 9562 9557 9554 9552 9552 9552 9551 9547 9542 9540 9540 9540 9538 9536 9536 9535 9533 9533 9532 9533 9534 9536 9538 9540 9542 9542 9542 9542 9540
9963 9953 9944 9934 9923 9912 9901 9890 9879 9868 9858 9849 9839 9829 9819 9809 9799 9789 9780 9771 9762 9753 9745 9738 9731 9723 9715 9708 9700 9693 9686 9680 9673 9667 9660 9654 9650 9646 9639 9630 9621 9612 9605 9599 9594 9589 9584 9580 9575 9571 9568 9565 9563 9561 9559 9558 9555 9552 9548 9546 9545 9544 9542 9537 9533 9532 9533 9532 9530 9529 9528 9527 9526 9525 9524 9525 9526 9527 9529 9531 9532 9533 9533 9532 9531